星链-32116 (STARLINK-32116 )

导读 | 星芒AI

STARLINK-32116 是 SpaceX Starlink 项目中的一颗低轨通信卫星,属于第三代 Starlink 卫星(也称为 v1.5 或 Block V)。该卫星于 2023 年发射,旨在为全球提供高速互联网服务。它运行在约 550 公里的轨道高度,具备先进的通信能力和星间链路,可减少对地面基站的依赖。STARLINK-32116 采用可展开太阳能电池板和离子推进系统,提高了运行效率和可持续性,是 SpaceX 扩展全球宽带网络覆盖计划的重要组成部分。

基本信息
目录编号:
60075
目录名称:
STARLINK-32116
国际标识:
2024-113S
轨道中心:
EARTH
卫星名称:
星链-32116
卫星全名:
星链-32116 (STARLINK-32116 )
卫星状态:
已陨落 最后检测时间 2024-07-10
发射日期:
2024-06-19 UTC
国别 :
美国 (US)
星等 :
--
轨道信息
数据来源 国际轨道数据
星历时间: 2024-07-11T01:42:09+0800
轨道信息已过期484天
半长轴: 6501.665km
偏心率: 0.0006149
轨道倾角: 53.128°
近地点辐角 258.235°
升交点赤经 302.194°
平近点角 213.591°
近地点: 119.532km
远地点: 127.528km
周期: 86.955分钟
每日圈数: 16.560213
详细信息
固有亮度:
5
最大亮度:
1.5
卫星平台:
Starlink v2.0 mini
覆盖范围:
全球
运营商:
太空探索技术公司
运营商所在国:
美国
制造商(研发单位):
太空探索技术公司
制造商所在国:
美国
使用方式:
暂无
卫星简介
星链(Starlink)计划是由太空探索技术公司(SpaceX)提出的一个巨型低轨卫星互联网星座项目,计划在2019年至2024年间在太空搭建由约1.2万颗卫星组成的“星链”网络,其中1584颗将部署在地球上空550千米处的近地轨道,并从2020年开始工作。该卫星仍在工作。